Simultaneous Nadir Overpasses (SNOs) Predictions

Prediction of SNOs between NOAA-15 and METOP-C Satellite Orbit:

Table of predicted SNOs for the next 14.0 days since TLE Epoch: 5/1/2021
Index Date (NOAA-15) Time (NOAA-15) Lat,Lon (NOAA-15) SZA (NOAA-15 ) Date (METOP-C) Time (METOP-C) Lat,Lon (METOP-C) SZA (METOP-C ) Distance(km) Time Diff (sec)
1 05/13/2021 00:29:42 81.01,-150.51 64.58 05/13/2021 00:28:38 81.01,-150.36 64.56 2.75 64
2 05/13/2021 01:20:17 -81.02, 16.76 115.44 05/13/2021 01:19:19 -81.00, 16.88 115.47 2.79 58
3 05/13/2021 02:10:44 81.01,-175.67 64.56 05/13/2021 02:10:00 81.00,-175.85 64.52 3.31 44
4 05/13/2021 03:01:19 -81.01, -8.41 115.46 05/13/2021 03:00:40 -81.01, -8.25 115.46 2.82 39
5 05/13/2021 03:51:46 81.01, 159.16 64.55 05/13/2021 03:51:21 81.01, 159.02 64.53 2.51 25
6 05/13/2021 04:42:21 -81.01, -33.57 115.47 05/13/2021 04:42:02 -81.00, -33.74 115.49 2.97 19
7 05/13/2021 05:32:49 81.02, 133.63 64.52 05/13/2021 05:32:43 81.00, 133.52 64.49 2.53 6
8 05/13/2021 06:23:23 -81.00, -58.74 115.48 05/13/2021 06:23:23 -81.01, -58.87 115.48 2.53 0
9 05/13/2021 07:13:51 81.01, 108.46 64.51 05/13/2021 07:14:04 81.01, 108.39 64.50 1.21 13
10 05/13/2021 08:04:26 -81.02, -84.27 115.51 05/13/2021 08:04:45 -81.01, -84.36 115.52 2.01 19
11 05/13/2021 08:54:53 81.01, 83.29 64.50 05/13/2021 08:55:25 81.02, 83.26 64.51 1.31 32
12 05/13/2021 09:45:28 -81.01,-109.43 115.52 05/13/2021 09:46:06 -81.02,-109.49 115.51 1.16 38
13 05/13/2021 10:35:56 81.02, 57.76 64.46 05/13/2021 10:36:47 81.01, 57.76 64.48 0.92 51
14 05/13/2021 11:26:31 -81.02,-134.96 115.56 05/13/2021 11:27:28 -81.01,-134.99 115.55 1.73 57
15 05/13/2021 12:16:58 81.02, 32.59 64.45 05/13/2021 12:18:08 81.02, 32.64 64.49 0.95 70



Historial Predications of SNOs between NOAA-15 and METOP-C
